Wind_Speed
21 21 21 20 20 19 19 20 21 22 22 22 21 21 21 21 22 23 23 23 24 24 24 24 24 23 23 22 21 19 18 17 16 15 15 14 13 13 13 12 12 11 10
21 21 20 20 21 21 21 22 22 22 23 23 22 22 22 22 22 23 23 24 25 25 24 26 26 26 25 25 24 22 22 20 18 18 17 16 15 14 14 14 13 13 12
20 20 21 21 21 22 22 22 22 21 22 22 22 22 22 23 23 24 23 24 25 25 26 26 27 29 28 27 27 26 25 23 22 21 20 19 18 17 16 16 15 15 14
22 22 22 23 23 24 23 23 22 22 22 22 22 23 23 23 23 24 25 25 26 26 27 28 28 29 31 30 29 30 28 27 25 24 22 21 20 19 18 17 17 17 16
22 22 22 22 23 23 23 23 23 24 24 24 24 24 25 25 25 25 26 26 26 27 28 29 29 30 32 32 31 31 31 30 29 27 26 24 23 22 21 20 19 18 17
23 23 23 23 23 24 24 25 25 25 26 26 26 26 26 27 27 27 27 27 28 29 30 30 31 32 33 34 33 33 32 33 32 30 29 28 26 25 24 22 21 20 19
23 24 24 25 25 25 26 27 27 27 28 28 28 28 29 29 29 29 30 29 29 30 31 31 31 32 34 34 35 34 34 34 34 33 32 31 29 28 27 25 24 23 22
23 24 25 26 26 27 27 28 28 29 30 31 31 31 31 31 32 32 32 32 31 31 32 32 32 33 34 34 35 35 36 36 35 35 35 34 33 31 30 29 27 26 24
24 25 25 26 27 28 28 29 29 30 31 32 32 33 33 34 33 33 34 34 34 34 34 34 34 34 34 35 35 37 36 37 37 37 37 37 36 34 33 32 30 29 27
25 25 26 26 28 29 29 30 30 31 31 31 32 33 34 34 35 35 35 36 36 36 36 36 36 35 35 36 36 37 37 37 38 39 38 38 38 37 36 35 33 32 30
25 26 26 27 29 30 30 31 31 32 32 32 33 34 34 34 35 36 36 36 37 37 37 37 38 38 37 37 37 38 37 37 38 39 40 39 39 39 38 38 37 35 33
26 26 27 28 29 30 30 31 31 32 33 33 34 35 35 35 36 36 36 36 37 37 38 38 39 39 39 38 38 38 38 37 37 40 40 40 40 40 40 39 39 38 36
28 28 29 29 30 30 31 31 31 32 33 34 34 35 36 36 37 38 38 37 38 38 38 39 40 40 40 39 39 39 39 38 37 38 40 40 40 40 41 40 40 39 39
30 30 31 31 31 31 31 32 32 33 33 34 35 36 37 37 38 39 40 40 40 39 39 39 40 41 42 42 41 41 41 40 39 39 40 41 41 41 41 41 41 40 40
31 31 31 32 32 32 32 32 33 33 34 35 36 37 38 38 39 40 40 41 41 41 41 40 40 40 41 42 42 41 41 41 41 40 40 42 43 42 42 41 41 41 40
31 32 32 32 32 32 33 33 34 34 35 35 36 37 38 39 40 40 41 42 42 42 42 42 42 40 40 41 42 42 41 43 42 41 41 41 43 42 42 42 41 40 41
32 32 32 33 33 32 33 33 34 34 34 35 36 36 37 38 39 40 41 41 42 42 41 42 42 42 41 41 42 42 42 43 44 43 41 41 42 42 43 43 42 41 40
33 33 34 34 33 33 34 34 33 33 34 34 35 35 35 36 38 39 40 41 41 42 42 42 42 42 42 42 42 42 43 44 44 44 43 43 42 42 43 44 43 42 40
35 35 35 34 34 34 34 34 33 33 33 33 34 34 34 35 35 36 37 39 40 41 41 42 42 43 43 43 44 43 42 43 44 44 44 44 44 43 43 43 43 43 42
36 36 35 35 34 34 34 33 33 32 32 32 32 33 33 34 34 35 36 37 38 39 40 41 42 43 43 43 44 44 44 44 43 43 44 44 45 45 44 44 44 43 42
37 36 36 36 35 35 34 33 32 32 31 31 31 31 31 32 33 34 35 36 37 38 39 40 41 43 43 43 44 44 44 44 44 43 43 44 45 45 45 45 45 44 43
37 37 37 36 36 35 33 32 32 31 30 30 29 29 30 30 31 32 34 35 36 37 38 40 41 42 43 44 44 45 45 45 45 44 44 43 44 47 46 45 45 45 45
38 38 37 36 35 34 34 32 31 30 29 29 28 28 28 28 28 30 32 33 35 37 38 39 41 42 42 43 44 45 46 46 45 45 45 43 42 44 47 48 47 46 45
39 38 38 37 35 34 33 32 31 29 29 28 28 27 27 27 27 28 29 30 32 35 37 38 40 42 43 43 44 45 45 46 45 45 45 44 43 43 46 48 48 48 47
39 39 38 37 35 34 33 32 31 30 29 28 27 26 26 26 26 27 29 30 31 33 35 37 38 41 42 43 44 45 45 45 46 46 46 45 45 45 44 45 48 49 48
40 40 38 37 35 34 33 32 31 29 28 27 26 26 26 26 26 27 28 29 31 32 34 36 38 40 42 43 44 44 45 46 46 46 47 46 46 46 45 44 45 48 49
Wind_Direction
284 283 281 279 274 271 272 273 269 268 264 265 266 263 261 257 259 255 247 245 243 241 239 238 238 235 233 231 230 230 227 225 223 219 216 213 210 208 206 202 199 195 190
288 285 283 282 276 273 271 273 271 271 267 267 267 266 262 260 259 257 250 244 244 244 242 240 239 238 236 234 232 231 230 228 226 223 220 217 214 212 209 207 205 202 198
293 290 285 282 279 277 275 274 271 268 268 267 266 266 262 259 256 254 252 247 244 244 243 241 240 238 237 236 234 232 231 230 228 226 224 221 218 216 214 212 210 207 205
293 291 288 284 279 277 277 275 273 270 269 265 264 263 260 259 256 254 253 250 247 245 244 242 241 239 237 236 235 232 232 232 230 228 226 223 222 219 217 216 215 212 210
294 291 290 287 282 279 276 274 273 271 270 267 263 261 259 258 257 254 253 252 250 246 244 243 242 240 237 236 236 234 233 232 231 230 228 227 225 222 219 218 217 215 214
296 291 290 288 283 280 277 275 273 272 269 267 264 262 260 257 256 255 255 254 252 248 245 245 244 242 238 236 236 235 234 233 233 231 229 228 227 225 221 220 219 219 217
296 293 292 288 285 282 279 276 275 273 270 267 266 264 262 261 258 256 256 255 253 249 246 246 245 243 239 237 235 236 235 234 233 232 229 228 228 226 223 222 221 221 221
297 294 292 289 286 283 280 278 275 273 271 269 266 264 263 262 259 257 256 256 254 251 248 246 244 242 240 237 236 235 236 234 234 233 231 229 228 227 225 224 223 223 224
299 297 294 291 288 285 283 280 277 274 272 270 267 265 263 262 261 258 256 255 254 252 249 247 245 242 240 239 237 235 235 236 234 234 232 231 228 227 226 226 226 225 226
302 299 297 294 291 288 285 282 279 276 273 270 269 267 264 262 260 258 257 255 253 253 251 248 245 243 241 240 239 237 236 236 235 234 233 231 229 228 228 227 227 227 227
306 304 301 297 293 290 287 284 280 277 275 272 269 267 265 262 260 259 257 255 253 252 250 248 245 244 242 240 238 237 237 237 236 234 232 232 230 230 229 228 228 228 228
309 307 304 301 297 293 290 286 282 279 276 274 271 269 266 262 260 259 257 255 253 251 250 248 246 245 243 239 238 238 237 237 237 234 232 232 231 230 229 229 228 228 229
312 310 307 303 300 296 292 289 286 282 278 276 273 270 267 264 260 258 256 255 253 252 251 248 245 244 242 240 238 237 237 236 237 235 232 232 230 230 229 229 229 229 231
314 312 309 306 302 298 294 291 288 285 281 278 275 272 269 266 262 258 256 254 253 251 250 248 247 244 242 239 237 237 237 236 236 236 234 232 230 230 229 230 229 229 230
316 314 310 307 303 300 296 292 289 287 283 280 277 274 270 266 263 260 256 253 252 250 248 248 246 245 242 240 237 236 236 235 234 235 233 231 230 229 229 229 229 230 230
319 317 313 310 306 302 298 295 291 288 285 282 279 276 272 267 263 260 258 254 252 250 248 247 245 245 243 239 236 236 236 234 232 232 232 232 230 228 228 228 228 229 229
321 319 315 312 309 305 301 298 295 291 287 283 280 277 273 268 263 259 257 254 251 249 248 245 245 243 243 240 237 236 235 233 231 229 230 231 230 229 228 227 228 228 228
323 320 316 314 310 307 304 302 299 295 290 285 282 278 274 270 265 260 256 253 251 248 247 245 244 243 241 239 237 236 235 233 231 230 229 230 230 229 228 227 227 228 229
324 322 320 317 314 311 308 305 302 297 292 287 283 278 274 270 266 261 256 253 251 248 246 244 243 243 241 239 237 236 234 233 232 232 230 230 230 230 229 228 227 228 228
327 325 323 320 317 314 311 308 304 301 296 291 286 280 274 270 266 261 257 254 252 249 246 244 242 241 240 239 237 236 235 235 233 233 231 231 230 230 229 228 227 228 228
329 327 324 322 319 316 313 310 307 303 299 295 290 283 277 272 268 262 257 254 252 250 247 244 242 241 240 238 236 236 234 234 233 232 231 231 230 229 229 228 227 227 227
331 329 326 324 321 318 316 313 310 306 302 297 292 287 281 275 269 264 258 254 252 250 248 246 243 241 239 237 236 235 235 233 233 232 231 230 230 229 227 226 228 227 227
332 330 328 326 323 320 318 315 313 309 305 300 295 289 284 279 273 267 260 255 252 250 248 246 244 242 240 238 236 235 234 233 233 233 232 230 230 229 227 226 227 227 227
333 331 329 327 325 322 319 317 315 311 307 303 298 292 286 280 276 270 264 258 254 250 248 245 243 241 240 238 237 235 235 233 232 232 232 231 231 231 230 229 228 227 227
334 332 330 328 326 324 321 319 317 314 309 305 300 295 289 283 278 273 267 262 257 252 249 246 243 241 240 238 236 235 235 234 232 231 231 231 231 231 231 230 229 227 227
333 333 332 329 327 325 323 321 319 316 313 309 303 298 293 286 280 274 269 264 258 254 250 247 243 241 240 239 237 235 234 234 232 231 230 230 231 231 231 230 229 228 226
Height
5863 5863 5862 5862 5862 5863 5863 5863 5864 5864 5865 5866 5868 5869 5870 5871 5872 5874 5876 5878 5879 5882 5885 5887 5890 5893 5895 5897 5900 5902 5905 5907 5909 5912 5914 5916 5918 5920 5922 5924 5926 5929 5930
5858 5857 5857 5857 5858 5858 5858 5858 5858 5859 5860 5862 5863 5864 5865 5867 5868 5869 5871 5873 5875 5877 5880 5883 5885 5888 5891 5894 5896 5899 5902 5904 5907 5909 5912 5914 5916 5919 5921 5923 5925 5928 5930
5854 5853 5853 5853 5853 5853 5853 5853 5853 5854 5855 5856 5857 5858 5859 5861 5863 5864 5866 5868 5869 5872 5875 5877 5880 5883 5886 5889 5892 5895 5898 5901 5904 5906 5909 5912 5914 5916 5919 5921 5924 5926 5928
5849 5849 5848 5848 5847 5847 5848 5848 5848 5848 5849 5850 5851 5852 5854 5855 5857 5859 5860 5862 5864 5866 5869 5871 5874 5877 5880 5883 5887 5890 5893 5897 5900 5903 5906 5909 5911 5914 5916 5919 5922 5924 5926
5845 5844 5843 5843 5842 5842 5842 5842 5843 5843 5843 5843 5844 5846 5847 5849 5851 5852 5854 5855 5857 5860 5862 5865 5868 5870 5874 5877 5881 5884 5888 5891 5895 5899 5902 5905 5908 5911 5913 5916 5919 5922 5924
5840 5839 5838 5837 5837 5836 5836 5836 5836 5836 5837 5837 5838 5839 5841 5842 5844 5845 5847 5849 5851 5853 5855 5858 5861 5864 5867 5871 5874 5878 5882 5886 5890 5893 5897 5901 5904 5907 5910 5913 5916 5919 5922
5835 5834 5833 5832 5831 5830 5830 5830 5830 5830 5830 5831 5832 5833 5834 5835 5836 5838 5840 5841 5844 5845 5848 5850 5853 5856 5860 5863 5867 5871 5875 5879 5883 5887 5891 5895 5899 5902 5906 5909 5912 5915 5918
5830 5828 5827 5826 5825 5824 5823 5823 5822 5822 5823 5823 5824 5825 5826 5828 5829 5830 5832 5834 5836 5838 5840 5843 5846 5849 5852 5855 5860 5864 5868 5872 5876 5880 5885 5889 5893 5897 5901 5904 5908 5911 5915
5824 5822 5820 5819 5818 5817 5816 5815 5815 5815 5815 5815 5815 5817 5818 5819 5820 5822 5824 5826 5827 5830 5832 5835 5838 5841 5844 5848 5852 5856 5860 5864 5869 5873 5877 5882 5886 5891 5895 5899 5903 5906 5910
5818 5816 5814 5813 5811 5809 5808 5807 5806 5806 5806 5806 5806 5807 5808 5809 5811 5813 5815 5817 5819 5821 5824 5826 5829 5833 5836 5840 5844 5848 5852 5856 5861 5865 5869 5874 5879 5884 5888 5892 5897 5901 5905
5812 5810 5808 5806 5803 5802 5800 5799 5798 5797 5797 5797 5797 5798 5799 5800 5801 5803 5805 5807 5810 5812 5814 5817 5820 5824 5828 5831 5835 5840 5844 5848 5852 5856 5861 5866 5871 5876 5881 5886 5890 5895 5899
5806 5804 5801 5799 5796 5794 5792 5790 5789 5788 5787 5787 5787 5788 5789 5790 5791 5793 5795 5797 5799 5802 5805 5807 5811 5815 5818 5822 5827 5831 5835 5839 5843 5848 5853 5858 5863 5868 5873 5878 5883 5888 5893
5800 5797 5794 5791 5788 5786 5784 5782 5780 5779 5778 5777 5777 5777 5778 5779 5780 5782 5784 5787 5789 5792 5795 5798 5801 5805 5808 5813 5817 5821 5826 5830 5835 5839 5844 5849 5854 5860 5865 5870 5875 5880 5886
5793 5790 5786 5783 5780 5778 5775 5773 5771 5769 5768 5767 5767 5767 5767 5768 5769 5771 5773 5776 5778 5781 5784 5788 5791 5794 5798 5802 5807 5812 5817 5821 5826 5831 5836 5841 5846 5851 5857 5862 5867 5873 5878
5787 5783 5779 5775 5772 5769 5766 5764 5762 5760 5758 5757 5756 5756 5756 5756 5757 5759 5761 5764 5767 5770 5774 5777 5780 5783 5787 5791 5797 5802 5807 5812 5817 5822 5826 5832 5837 5843 5848 5854 5859 5865 5870
5780 5776 5772 5768 5764 5761 5757 5754 5752 5750 5748 5746 5745 5744 5744 5744 5745 5747 5749 5751 5754 5758 5762 5766 5769 5773 5777 5781 5786 5791 5796 5802 5807 5812 5817 5822 5828 5834 5839 5845 5851 5856 5862
5774 5769 5764 5760 5756 5752 5748 5745 5742 5739 5737 5735 5733 5733 5732 5732 5733 5734 5736 5739 5742 5745 5750 5754 5757 5762 5766 5771 5776 5781 5786 5791 5796 5802 5808 5813 5819 5824 5830 5836 5842 5848 5854
5768 5762 5757 5752 5748 5743 5739 5735 5732 5729 5726 5724 5722 5721 5720 5720 5721 5722 5724 5726 5730 5733 5737 5742 5746 5750 5755 5760 5765 5770 5776 5781 5786 5792 5798 5804 5809 5815 5821 5827 5833 5839 5845
5760 5755 5749 5744 5739 5735 5730 5726 5722 5718 5716 5713 5711 5710 5709 5709 5709 5710 5712 5714 5717 5721 5725 5730 5735 5739 5744 5749 5754 5759 5765 5771 5776 5782 5788 5794 5800 5806 5812 5818 5824 5830 5836
5754 5747 5742 5736 5731 5726 5721 5717 5713 5709 5705 5703 5700 5699 5698 5698 5698 5699 5700 5703 5706 5709 5713 5718 5723 5728 5733 5737 5743 5748 5754 5760 5766 5772 5778 5784 5790 5796 5802 5809 5815 5821 5828
5747 5741 5735 5729 5723 5718 5713 5708 5704 5700 5696 5693 5690 5688 5687 5687 5687 5688 5689 5692 5695 5698 5702 5706 5711 5716 5721 5726 5731 5737 5743 5749 5755 5761 5768 5774 5781 5787 5792 5799 5806 5813 5819
5741 5734 5728 5721 5715 5710 5704 5700 5695 5691 5687 5684 5681 5679 5677 5677 5676 5677 5678 5681 5684 5687 5691 5695 5699 5704 5710 5715 5720 5726 5732 5738 5745 5752 5757 5764 5770 5776 5783 5790 5797 5803 5810
5734 5727 5721 5714 5708 5702 5696 5691 5686 5682 5678 5675 5672 5670 5668 5667 5666 5667 5668 5670 5672 5675 5679 5683 5688 5692 5697 5703 5709 5715 5720 5727 5734 5740 5747 5754 5760 5766 5773 5780 5787 5793 5800
5728 5721 5714 5707 5701 5695 5689 5684 5679 5674 5670 5667 5664 5661 5659 5658 5657 5657 5658 5659 5661 5664 5667 5671 5676 5681 5685 5690 5696 5703 5708 5716 5723 5729 5736 5743 5750 5756 5763 5769 5776 5783 5790
5721 5714 5707 5700 5694 5688 5682 5676 5671 5666 5662 5659 5655 5652 5650 5649 5648 5648 5648 5650 5651 5653 5655 5659 5664 5668 5673 5679 5684 5691 5698 5705 5712 5719 5725 5732 5739 5746 5752 5758 5765 5772 5779
5715 5708 5701 5694 5687 5681 5675 5669 5664 5659 5655 5651 5647 5644 5642 5640 5639 5638 5638 5639 5641 5643 5645 5648 5652 5657 5661 5667 5673 5680 5686 5693 5700 5708 5714 5721 5728 5735 5741 5748 5754 5761 5768